Kozani Airport, Greece

11:31 PM EEST on August 28, 2016 (GMT +0300)
Filippos

Weather History for LGKZ - November, 2012

Change the Weather History Date:

Friday, November 16, 2012

  Actual Average Record
Temperature  
Mean Temperature 48 °F -  
Max Temperature 51 °F - - ()
Min Temperature 46 °F - - ()
Degree Days  
Heating Degree Days 16    
Moisture  
Dew Point 43 °F    
Average Humidity 80    
Maximum Humidity 87    
Minimum Humidity 71    
Precipitation  
Precipitation 0.00 in - - ()
Sea Level Pressure  
Sea Level Pressure 30.17 in    
Wind  
Wind Speed 3 mph ()    
Max Wind Speed 6 mph    
Max Gust Speed -    
Visibility 6.2 miles    
Events Rain    
T = Trace of Precipitation, MM = Missing Value Source: Averaged Metar Reports

Daily Weather History Graph

Daily Weather History Graph

Search for Another Location

Airport or City:

Trip Planner

Search our weather history database for the weather conditions in past years. The results will help you decide how hot, cold, wet, or windy it might be!

Date:

Astronomy

Nov. 16, 2012 Rise Set
Actual Time 7:19 AM EET 5:14 PM EET
Civil Twilight 6:50 AM EET 5:43 PM EET
Nautical Twilight 6:17 AM EET 6:16 PM EET
Astronomical Twilight 5:45 AM EET 6:49 PM EET
Moon 9:57 AM EET (11/16) 7:52 PM EET (11/16)
Length of Visible Light 10h 53m
Length of Day
9h 54m
Waxing Crescent, 9% of the Moon is Illuminated
Nov 16
Waxing Crescent
Nov 20
First Quarter
Nov 28
Full
Dec 6
Last Quarter
Dec 13
New

Hourly Weather History & Observations

Time (EET) Temp. Windchill Dew Point Humidity Pressure Visibility Wind Dir Wind Speed Gust Speed Precip Events Conditions
12:20 AM 46.4 °F - 42.8 °F 87% 30.18 in - Variable 2.3 mph - N/A Rain Light Rain
12:50 AM 46.4 °F 45.2 °F 42.8 °F 87% 30.18 in - Variable 3.5 mph - N/A Rain Light Rain
1:20 AM 46.4 °F 45.2 °F 42.8 °F 87% 30.18 in - Variable 3.5 mph - N/A Rain Light Rain
1:50 AM 46.4 °F 45.2 °F 41.0 °F 81% 30.18 in - Variable 3.5 mph - N/A Rain Light Rain
2:20 AM 46.4 °F 44.3 °F 41.0 °F 81% 30.18 in - NNW 4.6 mph - N/A   Unknown
2:50 AM 46.4 °F 44.3 °F 41.0 °F 81% 30.15 in - NNW 4.6 mph - N/A   Unknown
3:20 AM 46.4 °F 44.3 °F 41.0 °F 81% 30.15 in - NW 4.6 mph - N/A   Unknown
3:50 AM 46.4 °F 44.3 °F 41.0 °F 81% 30.15 in - NNW 4.6 mph - N/A   Unknown
4:20 AM 46.4 °F 44.3 °F 41.0 °F 81% 30.15 in - North 4.6 mph - N/A   Unknown
4:50 AM 46.4 °F 44.3 °F 41.0 °F 81% 30.15 in - NNW 4.6 mph - N/A   Unknown
5:20 AM 46.4 °F 43.5 °F 41.0 °F 81% 30.15 in - NNW 5.8 mph - N/A   Unknown
5:50 AM 46.4 °F 44.3 °F 41.0 °F 81% 30.15 in - NNW 4.6 mph - N/A   Unknown
6:20 AM 46.4 °F 44.3 °F 41.0 °F 81% 30.15 in - NNW 4.6 mph - N/A   Unknown
6:50 AM 46.4 °F 43.5 °F 41.0 °F 81% 30.15 in - NNW 5.8 mph - N/A   Unknown
7:20 AM 46.4 °F 43.5 °F 42.8 °F 87% 30.15 in - NNW 5.8 mph - N/A   Unknown
7:50 AM 46.4 °F 43.5 °F 42.8 °F 87% 30.18 in 6.2 mi North 5.8 mph - N/A   Mostly Cloudy
8:50 AM 48.2 °F - 42.8 °F 82% 30.18 in 6.2 mi Calm Calm - N/A   Mostly Cloudy
9:50 AM 48.2 °F - 42.8 °F 82% 30.18 in 6.2 mi Calm Calm - N/A   Overcast
10:50 AM 51.8 °F - 44.6 °F 76% 30.18 in 6.2 mi NNW 5.8 mph - N/A   Mostly Cloudy
11:50 AM 51.8 °F - 42.8 °F 71% 30.18 in 6.2 mi Calm Calm - N/A   Mostly Cloudy
12:50 PM 51.8 °F - 42.8 °F 71% 30.18 in 6.2 mi Calm Calm - N/A   Overcast
1:50 PM 51.8 °F - 42.8 °F 71% 30.18 in 6.2 mi Calm Calm - N/A   Overcast
2:20 PM 51.8 °F - 44.6 °F 76% 30.18 in - Variable 3.5 mph - N/A Rain Light Rain
2:50 PM 51.8 °F - 44.6 °F 76% 30.15 in - Variable 3.5 mph - N/A Rain Light Rain
3:20 PM 51.8 °F - 44.6 °F 76% 30.18 in - Variable 2.3 mph - N/A   Unknown
3:50 PM 51.8 °F - 44.6 °F 76% 30.18 in - South 4.6 mph - N/A Rain Light Rain
4:20 PM 51.8 °F - 44.6 °F 76% 30.18 in - Variable 2.3 mph - N/A   Unknown
4:50 PM 50.0 °F - 44.6 °F 82% 30.18 in - Variable 2.3 mph - N/A   Unknown
5:20 PM 50.0 °F - 44.6 °F 82% 30.18 in - Variable 1.2 mph - N/A   Unknown
5:50 PM 50.0 °F - 44.6 °F 82% 30.18 in - Variable 2.3 mph - N/A   Unknown
6:20 PM 50.0 °F - 42.8 °F 76% 30.18 in - Variable 2.3 mph - N/A   Unknown
6:50 PM 48.2 °F - 42.8 °F 82% 30.18 in - Variable 3.5 mph - N/A   Unknown
7:20 PM 48.2 °F - 42.8 °F 82% 30.18 in - Variable 2.3 mph - N/A   Unknown
7:50 PM 48.2 °F - 42.8 °F 82% 30.18 in - Variable 1.2 mph - N/A   Unknown
8:20 PM 48.2 °F - 42.8 °F 82% 30.18 in - Variable 3.5 mph - N/A   Unknown
8:50 PM 48.2 °F - 42.8 °F 82% 30.18 in - Variable 3.5 mph - N/A   Unknown
9:20 PM 48.2 °F - 42.8 °F 82% 30.18 in - NW 4.6 mph - N/A   Unknown
9:50 PM 48.2 °F - 42.8 °F 82% 30.18 in - Variable 3.5 mph - N/A   Unknown
10:20 PM 48.2 °F - 41.0 °F 76% 30.18 in - Variable 2.3 mph - N/A   Unknown
10:50 PM 46.4 °F 45.2 °F 41.0 °F 81% 30.18 in - Variable 3.5 mph - N/A   Unknown
11:20 PM 46.4 °F - 41.0 °F 81% 30.18 in - Variable 2.3 mph - N/A   Unknown
11:50 PM 46.4 °F - 41.0 °F 81% 30.18 in - Variable 2.3 mph - N/A   Unknown